TimeEDT,TemperatureF,Dew PointF,Humidity,Sea Level PressureIn,VisibilityMPH,Wind Direction,Wind SpeedMPH,Gust SpeedMPH,PrecipitationIn,Events,Conditions,WindDirDegrees,DateUTC
12:53 AM,71.1,69.1,93,29.81,10.0,Calm,Calm,-,N/A,,Scattered Clouds,0,2013-06-28 04:53:00
1:53 AM,71.1,69.1,93,29.79,10.0,South,5.8,-,N/A,,Clear,190,2013-06-28 05:53:00
2:53 AM,70.0,68.0,93,29.79,10.0,WSW,3.5,-,N/A,,Clear,250,2013-06-28 06:53:00
3:53 AM,71.1,69.1,93,29.80,10.0,WSW,6.9,-,N/A,,Clear,250,2013-06-28 07:53:00
4:53 AM,70.0,69.1,97,29.79,9.0,SSW,8.1,-,N/A,,Scattered Clouds,210,2013-06-28 08:53:00
5:53 AM,72.0,70.0,93,29.79,10.0,SSW,9.2,-,N/A,,Scattered Clouds,210,2013-06-28 09:53:00
6:53 AM,71.1,69.1,93,29.79,8.0,SW,4.6,-,N/A,,Scattered Clouds,220,2013-06-28 10:53:00
7:53 AM,75.0,71.1,87,29.79,10.0,SW,8.1,-,N/A,,Mostly Cloudy,220,2013-06-28 11:53:00
8:53 AM,77.0,71.1,82,29.77,10.0,SW,9.2,-,N/A,,Mostly Cloudy,220,2013-06-28 12:53:00
9:53 AM,80.1,72.0,76,29.76,10.0,SSW,10.4,-,N/A,,Mostly Cloudy,210,2013-06-28 13:53:00
10:53 AM,81.0,71.1,72,29.75,10.0,SW,12.7,-,N/A,,Mostly Cloudy,230,2013-06-28 14:53:00
11:53 AM,82.9,71.1,67,29.75,10.0,SW,11.5,-,N/A,,Mostly Cloudy,220,2013-06-28 15:53:00
12:53 PM,86.0,70.0,59,29.74,10.0,WSW,10.4,-,N/A,,Mostly Cloudy,240,2013-06-28 16:53:00
1:53 PM,84.9,71.1,63,29.72,10.0,West,6.9,-,N/A,,Overcast,260,2013-06-28 17:53:00
2:53 PM,84.9,70.0,61,29.68,10.0,WSW,11.5,17.3,N/A,,Mostly Cloudy,240,2013-06-28 18:53:00
3:53 PM,86.0,69.1,57,29.65,10.0,West,9.2,-,N/A,,Mostly Cloudy,270,2013-06-28 19:53:00
4:53 PM,79.0,71.1,77,29.65,10.0,West,4.6,-,0.02,,Mostly Cloudy,280,2013-06-28 20:53:00
4:58 PM,78.8,71.6,78,29.69,10.0,WNW,4.6,-,N/A,Thunderstorm,Thunderstorm,300,2013-06-28 20:58:00
5:21 PM,77.0,69.8,78,29.69,10.0,West,5.8,-,0.00,Rain,Light Rain,260,2013-06-28 21:21:00
5:53 PM,75.9,71.1,85,29.65,10.0,SW,6.9,-,0.01,,Mostly Cloudy,220,2013-06-28 21:53:00
6:53 PM,78.1,72.0,81,29.65,10.0,Variable,5.8,-,N/A,,Mostly Cloudy,0,2013-06-28 22:53:00
7:53 PM,79.0,70.0,74,29.66,10.0,WSW,5.8,-,N/A,,Mostly Cloudy,240,2013-06-28 23:53:00
8:53 PM,78.1,68.0,71,29.66,10.0,WSW,3.5,-,N/A,,Mostly Cloudy,250,2013-06-29 00:53:00
9:53 PM,73.9,66.9,79,29.68,10.0,South,3.5,-,N/A,,Partly Cloudy,180,2013-06-29 01:53:00
10:53 PM,73.0,66.9,81,29.68,10.0,SW,6.9,-,N/A,,Partly Cloudy,230,2013-06-29 02:53:00
11:53 PM,70.0,68.0,93,29.67,10.0,SSW,3.5,-,N/A,,Partly Cloudy,210,2013-06-29 03:53:00